Meteo pe oră la Abadeh

Astăzi, 13 Iunie, Duminică

Timp Temperatura Precipitaţii Vânt Presiune Umiditate
00:00 +28°C° 0 mm 3 m/s 592 mmHg 12%
01:00 +27°C° 0 mm 3 m/s 592 mmHg 13%
02:00 +26°C° 0 mm 2 m/s 592 mmHg 13%
03:00 +26°C° 0 mm 2 m/s 591 mmHg 14%
04:00 +25°C° 0 mm 2 m/s 591 mmHg 15%
05:00 +26°C° 0 mm 2 m/s 592 mmHg 14%
06:00 +27°C° 0 mm 1 m/s 592 mmHg 14%
07:00 +27°C° 0 mm 1 m/s 593 mmHg 13%
08:00 +29°C° 0 mm 2 m/s 593 mmHg 12%
09:00 +31°C° 0 mm 3 m/s 594 mmHg 12%
10:00 +34°C° 0 mm 4 m/s 595 mmHg 11%
11:00 +35°C° 0 mm 5 m/s 595 mmHg 10%
12:00 +36°C° 0 mm 6 m/s 595 mmHg 9%
13:00 +39°C° 0 mm 7 m/s 595 mmHg 8%
14:00 +39°C° 0 mm 8 m/s 594 mmHg 7%
15:00 +39°C° 0 mm 8 m/s 594 mmHg 7%
16:00 +39°C° 0 mm 8 m/s 594 mmHg 6%
17:00 +38°C° 0 mm 8 m/s 593 mmHg 7%
18:00 +35°C° 0 mm 8 m/s 593 mmHg 7%
19:00 +34°C° 0 mm 9 m/s 593 mmHg 8%
20:00 +33°C° 0 mm 8 m/s 593 mmHg 9%
21:00 +31°C° 0 mm 8 m/s 592 mmHg 10%
22:00 +29°C° 0 mm 8 m/s 592 mmHg 11%
23:00 +28°C° 0 mm 8 m/s 592 mmHg 12%

Mâine, 14 Iunie, Luni

Timp Temperatura Precipitaţii Vânt Presiune Umiditate
00:00 +28°C° 0 mm 7 m/s 592 mmHg 12%
01:00 +27°C° 0 mm 7 m/s 591 mmHg 13%
02:00 +26°C° 0 mm 5 m/s 591 mmHg 14%
03:00 +26°C° 0 mm 4 m/s 590 mmHg 14%
04:00 +25°C° 0 mm 2 m/s 590 mmHg 15%
05:00 +25°C° 0 mm 2 m/s 591 mmHg 15%
06:00 +26°C° 0 mm 1 m/s 591 mmHg 14%
07:00 +27°C° 0 mm 1 m/s 592 mmHg 14%
08:00 +29°C° 0 mm 2 m/s 592 mmHg 11%
09:00 +32°C° 0 mm 4 m/s 593 mmHg 9%
10:00 +34°C° 0 mm 5 m/s 594 mmHg 7%
11:00 +35°C° 0 mm 6 m/s 594 mmHg 6%
12:00 +36°C° 0 mm 6 m/s 594 mmHg 6%
13:00 +38°C° 0 mm 7 m/s 594 mmHg 5%
14:00 +38°C° 0 mm 7 m/s 594 mmHg 5%
15:00 +38°C° 0 mm 7 m/s 593 mmHg 5%
16:00 +39°C° 0 mm 7 m/s 593 mmHg 4%
17:00 +38°C° 0 mm 7 m/s 593 mmHg 5%
18:00 +36°C° 0 mm 7 m/s 593 mmHg 5%
19:00 +35°C° 0 mm 8 m/s 592 mmHg 5%
20:00 +33°C° 0 mm 7 m/s 592 mmHg 6%
21:00 +30°C° 0 mm 6 m/s 592 mmHg 7%
22:00 +29°C° 0 mm 5 m/s 592 mmHg 7%
23:00 +28°C° 0 mm 4 m/s 592 mmHg 10%

Poimâine, 15 Iunie, Marţi

Timp Temperatura Precipitaţii Vânt Presiune Umiditate
00:00 +27°C° 0 mm 4 m/s 591 mmHg 12%
01:00 +26°C° 0 mm 3 m/s 591 mmHg 15%
02:00 +25°C° 0 mm 3 m/s 591 mmHg 16%
03:00 +25°C° 0 mm 3 m/s 591 mmHg 18%
04:00 +24°C° 0 mm 2 m/s 590 mmHg 19%
05:00 +25°C° 0 mm 2 m/s 591 mmHg 19%
06:00 +25°C° 0 mm 2 m/s 592 mmHg 19%
07:00 +26°C° 0 mm 2 m/s 592 mmHg 19%
08:00 +27°C° 0 mm 2 m/s 593 mmHg 17%
09:00 +29°C° 0 mm 2 m/s 593 mmHg 15%
10:00 +31°C° 0 mm 2 m/s 594 mmHg 13%
11:00 +34°C° 0 mm 3 m/s 594 mmHg 12%
12:00 +35°C° 0 mm 3 m/s 594 mmHg 10%
13:00 +37°C° 0 mm 4 m/s 594 mmHg 8%
14:00 +37°C° 0 mm 5 m/s 593 mmHg 8%
15:00 +39°C° 0 mm 5 m/s 593 mmHg 7%
16:00 +39°C° 0 mm 6 m/s 593 mmHg 7%
17:00 +38°C° 0 mm 6 m/s 592 mmHg 7%
18:00 +36°C° 0 mm 5 m/s 592 mmHg 8%
19:00 +36°C° 0 mm 5 m/s 592 mmHg 8%
20:00 +34°C° 0 mm 4 m/s 592 mmHg 10%
21:00 +31°C° 0 mm 3 m/s 592 mmHg 11%
22:00 +29°C° 0 mm 1 m/s 591 mmHg 13%
23:00 +29°C° 0 mm 1 m/s 591 mmHg 14%

16 Iunie, Miercuri

Timp Temperatura Precipitaţii Vânt Presiune Umiditate
00:00 +28°C° 0 mm 1 m/s 591 mmHg 15%
01:00 +27°C° 0 mm 1 m/s 590 mmHg 16%
02:00 +26°C° 0 mm 1 m/s 590 mmHg 16%
03:00 +26°C° 0 mm 1 m/s 590 mmHg 17%
04:00 +25°C° 0 mm 1 m/s 590 mmHg 17%
05:00 +26°C° 0 mm 1 m/s 590 mmHg 17%
06:00 +26°C° 0 mm 1 m/s 591 mmHg 16%
07:00 +27°C° 0 mm 1 m/s 592 mmHg 15%
08:00 +29°C° 0 mm 1 m/s 592 mmHg 14%
09:00 +30°C° 0 mm 2 m/s 593 mmHg 12%
10:00 +33°C° 0 mm 3 m/s 594 mmHg 11%
11:00 +34°C° 0 mm 4 m/s 594 mmHg 10%
12:00 +36°C° 0 mm 4 m/s 594 mmHg 9%
13:00 +37°C° 0 mm 4 m/s 594 mmHg 8%
14:00 +37°C° 0 mm 5 m/s 594 mmHg 7%
15:00 +39°C° 0 mm 5 m/s 593 mmHg 7%
16:00 +39°C° 0 mm 6 m/s 593 mmHg 7%
17:00 +38°C° 0 mm 6 m/s 593 mmHg 7%
18:00 +38°C° 0 mm 6 m/s 593 mmHg 8%
19:00 +36°C° 0 mm 6 m/s 592 mmHg 8%
20:00 +34°C° 0 mm 5 m/s 592 mmHg 9%
21:00 +32°C° 0 mm 4 m/s 592 mmHg 10%
22:00 +30°C° 0 mm 3 m/s 592 mmHg 11%
23:00 +29°C° 0 mm 3 m/s 592 mmHg 12%

17 Iunie, Joi

Timp Temperatura Precipitaţii Vânt Presiune Umiditate
00:00 +28°C° 0 mm 3 m/s 592 mmHg 12%
01:00 +27°C° 0 mm 2 m/s 591 mmHg 13%
02:00 +26°C° 0 mm 2 m/s 591 mmHg 13%
03:00 +25°C° 0 mm 1 m/s 590 mmHg 14%
04:00 +25°C° 0 mm 1 m/s 590 mmHg 15%
05:00 +25°C° 0 mm 1 m/s 591 mmHg 14%
06:00 +26°C° 0 mm 1 m/s 591 mmHg 13%
07:00 +27°C° 0 mm 1 m/s 592 mmHg 13%
08:00 +29°C° 0 mm 2 m/s 593 mmHg 12%
09:00 +30°C° 0 mm 3 m/s 593 mmHg 11%
10:00 +33°C° 0 mm 4 m/s 594 mmHg 9%
11:00 +34°C° 0 mm 4 m/s 594 mmHg 9%
12:00 +35°C° 0 mm 5 m/s 594 mmHg 8%
13:00 +37°C° 0 mm 5 m/s 594 mmHg 8%
14:00 +37°C° 0 mm 5 m/s 594 mmHg 7%
15:00 +37°C° 0 mm 5 m/s 594 mmHg 7%
16:00 +39°C° 0 mm 5 m/s 593 mmHg 7%
17:00 +37°C° 0 mm 5 m/s 593 mmHg 7%
18:00 +36°C° 0 mm 5 m/s 593 mmHg 8%
19:00 +36°C° 0 mm 5 m/s 592 mmHg 8%
20:00 +34°C° 0 mm 5 m/s 592 mmHg 9%
21:00 +32°C° 0 mm 4 m/s 592 mmHg 11%
22:00 +29°C° 0 mm 4 m/s 592 mmHg 12%
23:00 +28°C° 0 mm 3 m/s 592 mmHg 13%

18 Iunie, Vineri

Timp Temperatura Precipitaţii Vânt Presiune Umiditate
00:00 +27°C° 0 mm 2 m/s 592 mmHg 14%
01:00 +26°C° 0 mm 2 m/s 591 mmHg 15%
02:00 +26°C° 0 mm 2 m/s 591 mmHg 15%
03:00 +25°C° 0 mm 1 m/s 591 mmHg 15%
04:00 +25°C° 0 mm 1 m/s 590 mmHg 16%
05:00 +25°C° 0 mm 1 m/s 591 mmHg 15%
06:00 +26°C° 0 mm 1 m/s 592 mmHg 14%
07:00 +25°C° 0 mm 0 m/s 592 mmHg 13%
08:00 +29°C° 0 mm 1 m/s 593 mmHg 12%
09:00 +30°C° 0 mm 2 m/s 594 mmHg 10%
10:00 +33°C° 0 mm 3 m/s 594 mmHg 9%
11:00 +34°C° 0 mm 4 m/s 594 mmHg 8%
12:00 +35°C° 0 mm 4 m/s 594 mmHg 7%
13:00 +36°C° 0 mm 5 m/s 594 mmHg 7%
14:00 +36°C° 0 mm 5 m/s 594 mmHg 7%
15:00 +37°C° 0 mm 5 m/s 594 mmHg 7%
16:00 +37°C° 0 mm 5 m/s 594 mmHg 6%
17:00 +36°C° 0 mm 6 m/s 593 mmHg 7%
18:00 +35°C° 0 mm 7 m/s 593 mmHg 7%
19:00 +35°C° 0 mm 8 m/s 593 mmHg 7%
20:00 +33°C° 0 mm 6 m/s 593 mmHg 8%
21:00 +30°C° 0 mm 5 m/s 593 mmHg 9%
22:00 +28°C° 0 mm 3 m/s 593 mmHg 9%
23:00 +27°C° 0 mm 2 m/s 593 mmHg 10%
Arată mai mult

Formular de consimțământ

Meteoprog și furnizorii noștri de servicii pot stoca și accesa date personale, precum cookies, identificatori de dispozitiv sau alte tehnologii similare pe dispozitivul dumneavoastră și procesa astfel de date pentru a personaliza conținutul și reclamele, dar și pentru a oferi caracteristici de social media și pentru a analiza traficul.

  • Stocarea și/sau accesarea informațiilor pe dispozitivul dumneavoastră

    Cookies, identificatori de dispozitiv sau alte informații pot fi stocate sau accesate pe dispozitiv în scopurile indicate mai sus.

  • Reclame și conținut personalizat, evaluarea reclamelor și a conținutului, informații despre audiențe și dezvoltarea produselor

    Reclamele și conținutul pot fi personalizate pe baza unui profil. Pot fi adăugate date suplimentare pentru a personaliza mai bine reclamele și conținutul. Performanța reclamelor și conținutului poate fi măsurată. Pot fi obținute informații despre utilizatorii care au văzut reclamele și conținutul. Aceste date pot fi utilizate pentru a dezvolta sau îmbunătăți experiența utilizatorilor, sistemele și software-ul.

Dând clic pe ‘Sunt de acord’, permiteți utilizarea cookie-urilor menționate, a identificatorilor de dispozitiv, balizelor web sau altor tehnologii similare. Setările pot fi modificate din browser-ul dispozitivului dumneavoastră.

În anumite scopuri, interesele legitime pot prima asupra consimțământului. Puteți citi mai multe informații în acest sens în Politica privind Confidențialitatea Datelor și Cookie.